EW7512 Weather Reports


Display with metric or nautical units.
time (UTC)temp
F
wind
direction
speed
MPH
gust
MPH
rain 1hr
in
rain 24hr
in
rain mn
in
humidity
%
barometer
mb
20260902132006 85 30 10.0 21.0 0.00 0.00 0.00 32 1016.0
20260902131506 86 360 13.0 19.0 0.00 0.00 0.00 32 1016.0
20260902131006 86 73 12.0 19.0 0.00 0.00 0.00 32 1016.0
20260902130506 86 13 10.0 20.0 0.00 0.00 0.00 32 1016.1
20260902130006 86 360 7.0 20.0 0.00 0.00 0.00 32 1016.1
20260902125505 86 360 11.0 20.0 0.00 0.00 0.00 31 1016.1
20260902125005 87 50 10.0 20.0 0.00 0.00 0.00 30 1016.1
20260902124505 87 94 8.0 18.0 0.00 0.00 0.00 30 1016.1
20260902124005 87 56 10.0 26.0 0.00 0.00 0.00 30 1016.1
20260902123504 87 26 9.0 26.0 0.00 0.00 0.00 30 1016.2
20260902123004 86 41 11.0 22.0 0.00 0.00 0.00 29 1016.2
20260902122504 87 42 12.0 22.0 0.00 0.00 0.00 30 1016.1
20260902122004 87 58 8.0 19.0 0.00 0.00 0.00 30 1016.2
20260902121504 87 87 10.0 19.0 0.00 0.00 0.00 29 1016.1
20260902121004 87 62 10.0 27.0 0.00 0.00 0.00 30 1016.2
20260902120504 87 34 10.0 27.0 0.00 0.00 0.00 30 1016.4
20260902120003 87 101 12.0 21.0 0.00 0.00 0.00 29 1016.3
20260902115504 87 75 12.0 21.0 0.00 0.00 0.00 30 1016.3
20260902115002 87 39 12.0 21.0 0.00 0.00 0.00 29 1016.4
20260902114503 87 38 12.0 19.0 0.00 0.00 0.00 30 1016.4
20260902114006 87 37 11.0 25.0 0.00 0.00 0.00 30 1016.5
20260902113501 87 30 13.0 25.0 0.00 0.00 0.00 30 1016.7
20260902113002 87 55 10.0 24.0 0.00 0.00 0.00 30 1016.6
20260902112502 87 346 12.0 24.0 0.00 0.00 0.00 30 1016.5
20260902112002 87 70 11.0 22.0 0.00 0.00 0.00 30 1016.7
20260902111502 88 310 9.0 20.0 0.00 0.00 0.00 29 1016.7
20260902111002 88 29 7.0 20.0 0.00 0.00 0.00 29 1016.7
20260902110504 88 67 9.0 19.0 0.00 0.00 0.00 29 1016.7
20260902110001 88 72 8.0 19.0 0.00 0.00 0.00 29 1016.8
20260902105602 88 45 9.0 21.0 0.00 0.00 0.00 29 1016.7
20260902105102 88 46 9.0 21.0 0.00 0.00 0.00 29 1016.7
20260902104600 87 56 10.0 20.0 0.00 0.00 0.00 28 1016.7
20260902104103 88 5 11.0 22.0 0.00 0.00 0.00 28 1016.8
20260902103601 88 81 12.0 22.0 0.00 0.00 0.00 28 1016.8
20260902103059 88 56 11.0 19.0 0.00 0.00 0.00 28 1016.8
20260902102559 88 92 8.0 18.0 0.00 0.00 0.00 27 1016.9
20260902102059 88 73 9.0 23.0 0.00 0.00 0.00 27 1016.9
20260902101558 88 342 10.0 23.0 0.00 0.00 0.00 27 1016.9
20260902101057 88 23 9.0 17.0 0.00 0.00 0.00 26 1016.9
20260902100557 88 355 10.0 18.0 0.00 0.00 0.00 27 1017.0
20260902100056 88 59 9.0 19.0 0.00 0.00 0.00 27 1017.1
20260902095556 87 88 10.0 20.0 0.00 0.00 0.00 28 1017.0
20260902095056 88 63 11.0 20.0 0.00 0.00 0.00 27 1017.1
20260902094556 88 80 5.0 17.0 0.00 0.00 0.00 29 1017.1
20260902094053 88 336 8.0 18.0 0.00 0.00 0.00 28 1017.1
20260902093552 88 30 8.0 18.0 0.00 0.00 0.00 30 1017.1
20260902093050 87 91 9.0 17.0 0.00 0.00 0.00 30 1017.3
20260902092549 87 40 8.0 17.0 0.00 0.00 0.00 30 1017.2
20260902092049 87 51 10.0 21.0 0.00 0.00 0.00 30 1017.1
20260902091550 87 38 13.0 21.0 0.00 0.00 0.00 30 1017.2
20260902091046 87 74 8.0 14.0 0.00 0.00 0.00 32 1017.3
20260902090545 87 37 7.0 15.0 0.00 0.00 0.00 34 1017.2
20260902090044 86 53 7.0 17.0 0.00 0.00 0.00 34 1017.3
20260902085542 86 5 10.0 17.0 0.00 0.00 0.00 33 1017.2
20260902085041 86 29 8.0 17.0 0.00 0.00 0.00 33 1017.3
20260902084542 86 62 8.0 18.0 0.00 0.00 0.00 34 1017.2
20260902084038 86 62 8.0 16.0 0.00 0.00 0.00 33 1017.3
20260902083536 86 33 10.0 16.0 0.00 0.00 0.00 33 1017.2
20260902083037 86 18 8.0 18.0 0.00 0.00 0.00 34 1017.3
20260902082534 86 33 8.0 18.0 0.00 0.00 0.00 33 1017.3
20260902082033 86 82 9.0 19.0 0.00 0.00 0.00 33 1017.3
20260902081531 85 76 8.0 19.0 0.00 0.00 0.00 34 1017.2
20260902081030 85 51 10.0 21.0 0.00 0.00 0.00 35 1017.2
20260902080529 85 50 10.0 21.0 0.00 0.00 0.00 34 1017.2
20260902080029 85 346 10.0 18.0 0.00 0.00 0.00 34 1017.2
20260902075528 85 36 9.0 18.0 0.00 0.00 0.00 34 1017.0
20260902075028 85 65 9.0 18.0 0.00 0.00 0.00 34 1017.1
20260902074529 85 44 8.0 16.0 0.00 0.00 0.00 35 1017.0
20260902074028 85 128 7.0 16.0 0.00 0.00 0.00 35 1017.0
20260902073525 85 40 6.0 15.0 0.00 0.00 0.00 36 1016.9
20260902073024 85 355 6.0 15.0 0.00 0.00 0.00 40 1016.9
20260902072524 84 346 7.0 14.0 0.00 0.00 0.00 40 1016.9
20260902072022 84 40 6.0 15.0 0.00 0.00 0.00 41 1016.8
20260902071521 84 53 8.0 15.0 0.00 0.00 0.00 40 1016.8
20260902071020 83 22 7.0 13.0 0.00 0.00 0.00 43 1016.8
20260902070518 83 5 7.0 12.0 0.00 0.00 0.00 44 1016.7
20260902070017 82 340 5.0 13.0 0.00 0.00 0.00 45 1016.7
20260902065515 82 44 5.0 13.0 0.00 0.00 0.00 45 1016.7
20260902065014 82 22 6.0 13.0 0.00 0.00 0.00 46 1016.6
20260902064522 82 52 6.0 14.0 0.00 0.00 0.00 46 1016.5
20260902064014 82 340 6.0 14.0 0.00 0.00 0.00 47 1016.5
20260902063512 81 66 5.0 11.0 0.00 0.00 0.00 47 1016.5
20260902063009 81 35 5.0 12.0 0.00 0.00 0.00 47 1016.5
20260902062508 81 345 6.0 15.0 0.00 0.00 0.00 46 1016.6
20260902062007 81 345 7.0 15.0 0.00 0.00 0.00 46 1016.6
20260902061505 81 50 7.0 14.0 0.00 0.00 0.00 47 1016.6
20260902061003 80 42 5.0 12.0 0.00 0.00 0.00 48 1016.6
20260902060502 80 338 4.0 15.0 0.00 0.00 0.00 49 1016.6
20260902060122 80 32 6.0 15.0 0.00 0.00 0.00 49 1016.6
20260902055559 80 53 5.0 14.0 0.00 0.00 0.00 49 1016.6
20260902055058 79 39 6.0 13.0 0.00 0.00 0.00 50 1016.5
20260902054607 79 346 4.0 12.0 0.00 0.00 0.00 52 1016.6
20260902054054 79 23 6.0 13.0 0.00 0.00 0.00 51 1016.6
20260902053553 79 41 5.0 13.0 0.00 0.00 0.00 52 1016.6
20260902053051 78 5 5.0 11.0 0.00 0.00 0.00 53 1016.6
20260902052551 78 40 4.0 12.0 0.00 0.00 0.00 54 1016.5
20260902052048 78 45 4.0 12.0 0.00 0.00 0.00 54 1016.5
20260902051552 78 360 5.0 12.0 0.00 0.00 0.00 55 1016.5
20260902051046 77 15 4.0 9.0 0.00 0.00 0.00 56 1016.5
20260902050545 77 45 4.0 8.0 0.00 0.00 0.00 56 1016.5
20260902050043 77 22 2.0 7.0 0.00 0.00 0.00 57 1016.4
20260902045541 76 17 2.0 8.0 0.00 0.00 0.00 58 1016.4
20260902045039 76 355 3.0 6.0 0.00 0.00 0.00 59 1016.4
20260902044539 75 351 2.0 8.0 0.00 0.00 0.00 60 1016.4
20260902044037 75 19 2.0 8.0 0.00 0.00 0.00 61 1016.4
20260902043536 75 9 2.0 8.0 0.00 0.00 0.00 61 1016.4
20260902043044 74 360 2.0 8.0 0.00 0.00 0.00 62 1016.3
20260902042533 74 350 1.0 5.0 0.00 0.00 0.00 63 1016.3
20260902042032 74 26 2.0 5.0 0.00 0.00 0.00 63 1016.3
20260902041549 74 19 2.0 8.0 0.00 0.00 0.00 64 1016.3
20260902041030 73 350 3.0 8.0 0.00 0.00 0.00 65 1016.2
20260902040530 73 18 1.0 5.0 0.00 0.00 0.00 65 1016.2
20260902040029 73 9 2.0 6.0 0.00 0.00 0.00 66 1016.2
20260902035528 73 44 1.0 6.0 0.00 0.00 0.00 67 1016.2
20260902035026 73 22 2.0 5.0 0.00 0.00 0.00 67 1016.1
20260902034525 73 17 2.0 5.0 0.00 0.00 0.00 66 1016.2
20260902034024 74 348 2.0 5.0 0.00 0.00 0.00 64 1016.1
20260902033524 74 30 2.0 5.0 0.00 0.00 0.00 64 1016.1
20260902033025 74 34 2.0 5.0 0.00 0.00 0.00 64 1016.1
20260902032526 74 351 1.0 5.0 0.00 0.00 0.00 63 1016.1
20260902032022 74 17 3.0 5.0 0.00 0.00 0.00 61 1016.0
20260902031522 75 29 2.0 9.0 0.00 0.00 0.00 60 1016.1
20260902031022 75 360 4.0 9.0 0.00 0.00 0.00 60 1016.1
20260902030521 75 21 2.0 8.0 0.00 0.00 0.00 60 1016.0
20260902030022 75 56 2.0 8.0 0.00 0.00 0.00 59 1015.9
20260902025521 75 30 2.0 5.0 0.00 0.00 0.00 58 1016.0
20260902025023 75 26 2.0 6.0 0.00 0.00 0.00 57 1016.0
20260902024520 75 40 2.0 8.0 0.00 0.00 0.00 57 1015.9
20260902024020 75 35 3.0 8.0 0.00 0.00 0.00 57 1016.0
20260902023520 75 22 3.0 8.0 0.00 0.00 0.00 57 1015.9
20260902023020 75 47 3.0 8.0 0.00 0.00 0.00 56 1015.9
20260902022520 75 62 2.0 7.0 0.00 0.00 0.00 56 1015.9
20260902022019 75 64 3.0 6.0 0.00 0.00 0.00 56 1016.0
20260902021524 75 26 2.0 6.0 0.00 0.00 0.00 55 1015.9
20260902021019 75 50 2.0 5.0 0.00 0.00 0.00 55 1016.0
20260902020519 76 360 2.0 8.0 0.00 0.00 0.00 54 1015.8
20260902020019 76 17 3.0 11.0 0.00 0.00 0.00 53 1015.8
20260902015518 76 21 4.0 11.0 0.00 0.00 0.00 54 1015.9
20260902015018 76 18 5.0 11.0 0.00 0.00 0.00 54 1015.9
20260902014523 76 20 4.0 12.0 0.00 0.00 0.00 52 1015.9
20260902014018 76 35 3.0 12.0 0.00 0.00 0.00 53 1016.0
20260902013517 76 348 3.0 8.0 0.00 0.00 0.00 53 1016.0
20260902013019 77 46 3.0 11.0 0.00 0.00 0.00 51 1016.1
20260902012519 77 44 6.0 11.0 0.00 0.00 0.00 49 1016.0
20260902012019 77 49 4.0 9.0 0.00 0.00 0.00 50 1016.0
20260902011520 77 52 4.0 9.0 0.00 0.00 0.00 51 1016.0
20260902011017 77 49 4.0 9.0 0.00 0.00 0.00 51 1016.0
20260902010516 77 57 3.0 9.0 0.00 0.00 0.00 50 1016.0
20260902010016 77 47 3.0 9.0 0.00 0.00 0.00 51 1016.0
20260902005518 77 39 3.0 9.0 0.00 0.00 0.00 51 1015.9
20260902005015 77 42 3.0 10.0 0.00 0.00 0.00 51 1015.9
20260902004526 77 9 3.0 9.0 0.00 0.00 0.00 52 1015.8
20260902004014 77 44 3.0 9.0 0.00 0.00 0.00 51 1015.9
20260902003514 77 349 4.0 9.0 0.00 0.00 0.00 51 1015.8
20260902003040 77 67 4.0 11.0 0.00 0.00 0.00 51 1015.8
20260902002513 77 48 3.0 7.0 0.00 0.00 0.00 52 1015.8
20260902002014 77 26 3.0 9.0 0.00 0.00 0.00 52 1015.8
20260902001512 77 28 4.0 9.0 0.00 0.00 0.00 52 1015.8
20260902001013 77 40 4.0 9.0 0.00 0.00 0.00 52 1015.8
20260902000512 77 46 4.0 9.0 0.00 0.00 0.00 53 1015.8
20260902000016 77 57 3.0 6.0 0.00 0.00 0.00 53 1015.8
20260901235511 76 30 2.0 5.0 0.00 0.00 0.00 54 1015.9
20260901235010 76 47 2.0 5.0 0.00 0.00 0.00 54 1015.8
20260901234508 76 18 2.0 5.0 0.00 0.00 0.00 55 1015.8
20260901234008 75 9 3.0 5.0 0.00 0.00 0.00 56 1015.8
20260901233508 75 15 1.0 5.0 0.00 0.00 0.00 57 1015.8
20260901233007 75 27 1.0 5.0 0.00 0.00 0.00 57 1015.8
20260901232511 75 360 3.0 5.0 0.00 0.00 0.00 58 1015.8
20260901232007 75 360 2.0 5.0 0.00 0.00 0.00 57 1015.8
20260901231507 75 346 2.0 5.0 0.00 0.00 0.00 58 1015.8
20260901231005 75 355 2.0 10.0 0.00 0.00 0.00 58 1016.0
20260901230506 75 348 2.0 10.0 0.00 0.00 0.00 58 1016.0
20260901230008 75 355 3.0 5.0 0.00 0.00 0.00 58 1015.9
20260901225505 74 341 2.0 5.0 0.00 0.00 0.00 59 1016.0
20260901225004 74 355 2.0 5.0 0.00 0.00 0.00 58 1016.0
20260901224508 74 355 4.0 5.0 0.00 0.00 0.00 58 1015.9
20260901224004 74 346 3.0 5.0 0.00 0.00 0.00 58 1016.0
20260901223504 75 350 1.0 6.0 0.00 0.00 0.00 59 1016.0
20260901223004 74 347 3.0 6.0 0.00 0.00 0.00 59 1016.0
20260901222503 75 350 3.0 6.0 0.00 0.00 0.00 59 1016.0
20260901222001 75 336 4.0 6.0 0.00 0.00 0.00 58 1016.0
20260901221501 75 351 3.0 6.0 0.00 0.00 0.00 58 1016.1
20260901221100 75 325 3.0 6.0 0.00 0.00 0.00 59 1016.1
20260901220600 76 344 4.0 6.0 0.00 0.00 0.00 59 1016.1
20260901220100 76 346 3.0 6.0 0.00 0.00 0.00 59 1016.1
20260901215559 76 338 3.0 5.0 0.00 0.00 0.00 59 1016.1
20260901215059 76 342 3.0 5.0 0.00 0.00 0.00 59 1016.1
20260901214559 76 9 2.0 5.0 0.00 0.00 0.00 59 1016.1
20260901214058 76 15 3.0 5.0 0.00 0.00 0.00 58 1016.1
20260901213602 76 346 3.0 5.0 0.00 0.00 0.00 58 1016.0
20260901213102 76 345 2.0 6.0 0.00 0.00 0.00 58 1016.1
20260901212603 76 351 3.0 6.0 0.00 0.00 0.00 59 1016.2
20260901212058 76 10 2.0 6.0 0.00 0.00 0.00 59 1016.0
20260901211556 76 360 0.0 3.0 0.00 0.00 0.00 59 1016.1
20260901211055 76 360 0.0 1.0 0.00 0.00 0.00 59 1016.1
20260901210558 76 360 0.0 2.0 0.00 0.00 0.00 58 1016.1
20260901210120 76 360 0.0 2.0 0.00 0.00 0.00 58 1016.1
20260901205553 76 360 0.0 1.0 0.00 0.00 0.00 58 1016.1
20260901205052 76 360 0.0 2.0 0.00 0.00 0.00 58 1016.1
20260901204553 76 360 0.0 2.0 0.00 0.00 0.00 58 1016.1
20260901204052 76 360 0.0 0.0 0.00 0.00 0.00 58 1016.1
20260901203552 76 360 0.0 0.0 0.00 0.00 0.00 57 1016.0
20260901203053 76 360 0.0 1.0 0.00 0.00 0.00 58 1016.1
20260901202553 76 360 0.0 1.0 0.00 0.00 0.00 58 1016.0
20260901202054 75 360 0.0 0.0 0.00 0.00 0.00 58 1016.0
20260901201554 75 83 0.0 0.0 0.00 0.00 0.00 58 1016.0
20260901201054 76 83 0.0 1.0 0.00 0.00 0.00 57 1016.0
20260901200554 76 82 0.0 2.0 0.00 0.00 0.00 57 1016.1
20260901200051 76 82 0.0 2.0 0.00 0.00 0.00 56 1016.1
20260901195551 76 83 0.0 2.0 0.00 0.00 0.00 56 1016.0
20260901195051 76 83 0.0 1.0 0.00 0.00 0.00 57 1016.2
20260901194559 76 84 0.0 0.0 0.00 0.00 0.00 57 1016.1
20260901194050 76 84 0.0 0.0 0.00 0.00 0.00 56 1016.1
20260901193555 77 82 0.0 1.0 0.00 0.00 0.00 55 1016.1
20260901193050 77 82 0.0 1.0 0.00 0.00 0.00 55 1016.1
20260901192551 76 82 0.0 0.0 0.00 0.00 0.00 55 1016.1
20260901192051 77 82 0.0 0.0 0.00 0.00 0.00 55 1016.1
20260901191600 77 82 0.0 0.0 0.00 0.00 0.00 54 1016.1
20260901191052 77 82 0.0 1.0 0.00 0.00 0.00 54 1016.1
20260901190550 77 82 0.0 2.0 0.00 0.00 0.00 54 1016.1
20260901190115 77 82 0.0 2.0 0.00 0.00 0.00 55 1016.1
20260901185549 77 82 0.0 2.0 0.00 0.00 0.00 55 1016.0
20260901185049 77 82 0.0 1.0 0.00 0.00 0.00 55 1015.9
20260901184549 77 82 0.0 2.0 0.00 0.00 0.00 54 1015.9
20260901184049 77 82 0.0 2.0 0.00 0.00 0.00 55 1015.9
20260901183548 77 82 0.0 0.0 0.00 0.00 0.00 55 1015.9
20260901183051 77 82 0.0 2.0 0.00 0.00 0.00 55 1015.8
20260901182549 77 82 0.0 2.0 0.00 0.00 0.00 55 1015.7
20260901182049 77 82 1.0 2.0 0.00 0.00 0.00 54 1015.8
20260901181549 77 85 0.0 2.0 0.00 0.00 0.00 54 1015.7
20260901181048 77 86 0.0 0.0 0.00 0.00 0.00 56 1015.7
20260901180548 77 360 0.0 0.0 0.00 0.00 0.00 56 1015.7
20260901180049 77 360 0.0 0.0 0.00 0.00 0.00 56 1015.6
20260901175551 77 360 0.0 0.0 0.00 0.00 0.00 55 1015.6
20260901175047 78 89 0.0 1.0 0.00 0.00 0.00 55 1015.4
20260901174553 77 88 0.0 1.0 0.00 0.00 0.00 55 1015.3
20260901174047 78 360 0.0 2.0 0.00 0.00 0.00 55 1015.3
20260901173548 78 360 0.0 2.0 0.00 0.00 0.00 54 1015.2
20260901173047 78 360 0.0 1.0 0.00 0.00 0.00 54 1015.2
20260901172547 79 360 0.0 1.0 0.00 0.00 0.00 54 1015.1
20260901172049 79 360 0.0 3.0 0.00 0.00 0.00 53 1015.1
20260901171556 79 86 0.0 3.0 0.00 0.00 0.00 53 1015.1
20260901171047 79 85 0.0 4.0 0.00 0.00 0.00 52 1015.2
20260901170547 79 84 1.0 4.0 0.00 0.00 0.00 52 1015.1
20260901170047 80 83 1.0 5.0 0.00 0.00 0.00 52 1015.1
20260901165549 80 78 2.0 7.0 0.00 0.00 0.00 51 1015.1
20260901165049 80 92 3.0 7.0 0.00 0.00 0.00 51 1015.1
20260901164552 80 91 3.0 7.0 0.00 0.00 0.00 51 1015.0
20260901164046 80 82 3.0 7.0 0.00 0.00 0.00 50 1015.0
20260901163546 81 114 2.0 6.0 0.00 0.00 0.00 50 1014.9
20260901163105 81 96 3.0 10.0 0.00 0.00 0.00 50 1014.9
20260901162545 81 76 6.0 10.0 0.00 0.00 0.00 49 1014.8
20260901162046 81 78 3.0 8.0 0.00 0.00 0.00 49 1014.8
20260901161546 82 67 3.0 9.0 0.00 0.00 0.00 48 1014.8
20260901161045 82 90 4.0 9.0 0.00 0.00 0.00 48 1014.9
20260901160546 82 84 3.0 9.0 0.00 0.00 0.00 47 1014.9
20260901160044 82 89 4.0 9.0 0.00 0.00 0.00 47 1014.9
20260901155547 83 103 3.0 10.0 0.00 0.00 0.00 46 1014.9
20260901155045 83 90 6.0 10.0 0.00 0.00 0.00 45 1014.8
20260901154552 84 85 4.0 8.0 0.00 0.00 0.00 44 1014.8
20260901154044 84 25 3.0 9.0 0.00 0.00 0.00 41 1014.9